TimeEDT,TemperatureF,Dew PointF,Humidity,Sea Level PressureIn,VisibilityMPH,Wind Direction,Wind SpeedMPH,Gust SpeedMPH,PrecipitationIn,Events,Conditions,WindDirDegrees,DateUTC
12:54 AM,48.0,41.0,77,30.24,10.0,East,4.6,-,N/A,,Scattered Clouds,100,2013-05-05 04:54:00
1:54 AM,46.9,39.9,77,30.23,10.0,East,5.8,-,N/A,,Scattered Clouds,100,2013-05-05 05:54:00
2:45 AM,48.2,42.8,82,30.22,10.0,East,10.4,-,N/A,,Mostly Cloudy,100,2013-05-05 06:45:00
2:54 AM,48.0,42.1,80,30.22,10.0,East,8.1,-,N/A,,Mostly Cloudy,100,2013-05-05 06:54:00
3:54 AM,48.0,39.9,74,30.22,10.0,ENE,10.4,-,N/A,,Mostly Cloudy,70,2013-05-05 07:54:00
4:54 AM,46.9,39.0,74,30.22,10.0,ENE,8.1,-,N/A,,Mostly Cloudy,70,2013-05-05 08:54:00
5:54 AM,45.0,39.0,80,30.22,10.0,East,8.1,-,N/A,,Mostly Cloudy,90,2013-05-05 09:54:00
6:54 AM,46.9,37.9,71,30.24,10.0,East,10.4,-,N/A,,Mostly Cloudy,100,2013-05-05 10:54:00
7:54 AM,48.0,37.9,68,30.24,10.0,East,13.8,-,N/A,,Mostly Cloudy,90,2013-05-05 11:54:00
8:54 AM,48.9,37.9,66,30.25,10.0,East,15.0,23.0,N/A,,Mostly Cloudy,80,2013-05-05 12:54:00
9:54 AM,50.0,37.9,63,30.26,10.0,East,15.0,19.6,N/A,,Overcast,90,2013-05-05 13:54:00
10:54 AM,50.0,37.9,63,30.26,9.0,ENE,9.2,19.6,N/A,,Mostly Cloudy,60,2013-05-05 14:54:00
11:54 AM,54.0,37.9,55,30.25,10.0,East,12.7,-,N/A,,Mostly Cloudy,90,2013-05-05 15:54:00
12:54 PM,55.0,37.9,53,30.24,10.0,ENE,10.4,17.3,N/A,,Mostly Cloudy,70,2013-05-05 16:54:00
1:54 PM,57.2,39.2,51,30.22,10.0,ENE,8.1,-,N/A,,Scattered Clouds,70,2013-05-05 17:54:00
2:54 PM,59.0,39.0,48,30.21,10.0,NE,11.5,16.1,N/A,,Scattered Clouds,50,2013-05-05 18:54:00
3:54 PM,60.1,39.9,47,30.19,10.0,East,11.5,-,N/A,,Scattered Clouds,80,2013-05-05 19:54:00
4:54 PM,61.0,41.0,48,30.18,10.0,East,12.7,-,N/A,,Scattered Clouds,80,2013-05-05 20:54:00
5:54 PM,61.0,41.0,48,30.16,10.0,East,9.2,-,N/A,,Scattered Clouds,80,2013-05-05 21:54:00
6:54 PM,60.1,42.1,51,30.17,10.0,ESE,10.4,-,N/A,,Scattered Clouds,110,2013-05-05 22:54:00
7:54 PM,57.2,42.8,59,30.18,10.0,ESE,8.1,-,N/A,,Scattered Clouds,120,2013-05-05 23:54:00
8:54 PM,55.0,44.1,67,30.19,10.0,ESE,5.8,-,N/A,,Scattered Clouds,120,2013-05-06 00:54:00
9:54 PM,53.1,46.0,77,30.19,10.0,East,10.4,-,N/A,,Scattered Clouds,100,2013-05-06 01:54:00
10:54 PM,52.0,42.1,69,30.19,10.0,East,9.2,-,N/A,,Scattered Clouds,100,2013-05-06 02:54:00
11:54 PM,50.0,44.1,80,30.20,10.0,East,5.8,-,N/A,,Partly Cloudy,100,2013-05-06 03:54:00